SL-8 DEB, 39702

Orbit data source: Space-Track

SL-8 DEB, 39702 is space debris in LEO originally from a launch on Tue, 12 Feb 1991 UTC launched from the Plesetsk Missile And Space Complex (PKMTR). Debris objects in space refer to the collection of defunct objects orbiting the Earth. Examples of debris include non-operational satellites, rocket bodies, and fragments generated from explosions, collisions, or faulty payload assembly.

Loading next visibility...
Identifier
39702, 1991-009DR
Orbit
LEO
Country
Flag of CISCIS
Related business
Manufacturer
Unknown
Mission
Spacecraft
Bus & Motor
Unknown
Mass
Unknown
Launch date (UTC)
1991-02-12 (35 years ago)
Launch vehicle
Unknown
Launch site
Plesetsk Missile And Space Complex (PKMTR)
Object type
Payload
Rocket body
Debris
Shape & HBR
Unknown shape, 0.1 m
Radar Cross Section
Small (<0.1 m²)

Expand to show TLE details & history
Last TLE update: 2 weeks ago

TLE from 2 weeks ago
0 SL-8 DEB
1 39702U 91009DR  26157.31800303 -.00000117  00000-0 -10090-2 0  9992
2 39702  74.2306 187.9641 0188227 225.7014 132.8450 12.14777388456196
Epoch: 2026-06-06T07:37Z
TLE epoch observation values (Epoch: 2026-06-06T07:37:55.461Z)
Latitude
-0.00002°
Longitude
178.74772°
Altitude
1,721.538 km
Speed
6.971 km/s
True Right ascension
12h 31m 51s
True Declination
0° 00' 00"
Sunlit
Object was in daylight at epoch
Visualization orbit readout
Latitude
Unknown
Longitude
Unknown
Altitude
Unknown
Speed
Unknown
Apparent Right ascension
Unknown
Apparent Declination
Unknown
Sunlit
N/A
Visualization observer readout
Local Sidereal Time
05:31:50
Azimuth
Unknown
Elevation
Unknown
Doppler factor
Unknown
Orbital elements
Apogee altitude
1,763.649 km
Perigee altitude
1,462.811 km
Semi-major axis
7,991.367 km
Eccentricity
0.01882
Inclination
74.2306°
RAAN
187.9641°
Arg. of periapsis
225.7014°
True anomaly
134.40134°
Mean anomaly
132.845°
Eccentric anomaly
133.62566°
Mean motion
3.03817 °/min
Orbital period
118.49 mins
BSTAR
-0.001009
Loading maneuver chart data...
Computing Atmospheric mass density...
Loading historical data...
Loading historical data...
Loading historical data...
Loading historical data...
Loading historical data...
Loading historical data...
Loading historical data...

Documentation

Showing up to 5 results
|